GW6891 Weather Reports


time (UTC)temp
F
wind
direction
speed
knots
gust
knots
rain 1hr
in
rain 24hr
in
rain mn
in
humidity
%
barometer
mb
20260509024505 76 342 2.6 2.6 0.00 0.00 0.00 49 1022.7
20260509024004 75 270 0.9 1.7 0.00 0.00 0.00 48 1022.7
20260509023504 75 331 0.9 1.7 0.00 0.00 0.00 50 1022.7
20260509023005 75 159 3.5 3.5 0.00 0.00 0.00 48 1022.7
20260509022506 76 198 3.5 5.2 0.00 0.00 0.00 48 1023.0
20260509022004 77 346 0.9 0.9 0.00 0.00 0.00 50 1023.0
20260509021504 77 341 1.7 2.6 0.00 0.00 0.00 49 1023.0
20260509021004 77 337 1.7 1.7 0.00 0.00 0.00 49 1023.0
20260509020504 76 8 1.7 3.5 0.00 0.00 0.00 48 1023.0
20260509020009 76 82 1.7 2.6 0.00 0.00 0.00 48 1023.4
20260509015504 76 119 2.6 5.2 0.00 0.00 0.00 48 1023.4
20260509015004 77 286 0.9 0.9 0.00 0.00 0.00 48 1023.4
20260509014504 76 351 3.5 3.5 0.00 0.00 0.00 49 1023.4
20260509014004 75 263 1.7 1.7 0.00 0.00 0.00 49 1023.4
20260509013505 76 270 1.7 1.7 0.00 0.00 0.00 48 1023.4
20260509013005 77 217 1.7 1.7 0.00 0.00 0.00 47 1023.4
20260509012504 74 240 1.7 1.7 0.00 0.00 0.00 48 1023.4
20260509012004 75 221 1.7 1.7 0.00 0.00 0.00 48 1023.4
20260509011504 75 244 4.3 5.2 0.00 0.00 0.00 48 1023.4
20260509011005 76 120 1.7 1.7 0.00 0.00 0.00 47 1023.7
20260509010504 76 250 2.6 3.5 0.00 0.00 0.00 46 1023.7
20260509010005 74 260 1.7 1.7 0.00 0.00 0.00 48 1023.7
20260509005505 74 239 2.6 3.5 0.00 0.00 0.00 47 1023.7
20260509005004 76 199 1.7 1.7 0.00 0.00 0.00 46 1023.7
20260509004505 74 294 0.9 1.7 0.00 0.00 0.00 48 1024.4
20260509004005 74 148 3.5 4.3 0.00 0.00 0.00 47 1024.4
20260509003504 74 252 1.7 2.6 0.00 0.00 0.00 48 1024.4
20260509003006 75 235 2.6 3.5 0.00 0.00 0.00 47 1024.4
20260509002505 75 265 0.9 0.9 0.00 0.00 0.00 47 1024.4
20260509002004 76 273 0.9 0.9 0.00 0.00 0.00 45 1024.4
20260509001505 74 297 0.0 0.9 0.00 0.00 0.00 47 1024.4
20260509001004 72 257 0.9 0.9 0.00 0.00 0.00 48 1024.4
20260509000504 73 272 1.7 1.7 0.00 0.00 0.00 46 1024.4
20260509000005 73 273 0.9 0.9 0.00 0.00 0.00 48 1024.4
20260508235504 73 259 0.9 0.9 0.00 0.00 0.00 46 1024.4
20260508235004 73 287 0.0 0.0 0.00 0.00 0.00 47 1024.4
20260508234504 72 307 0.9 0.9 0.00 0.00 0.00 46 1024.4
20260508234005 72 289 0.0 0.9 0.00 0.00 0.00 47 1024.4
20260508233504 70 277 1.7 1.7 0.00 0.00 0.00 49 1024.4
20260508233004 71 257 0.9 0.9 0.00 0.00 0.00 48 1024.4
20260508232504 67 279 0.9 0.9 0.00 0.00 0.00 51 1024.4
20260508232005 68 270 0.9 0.9 0.00 0.00 0.00 50 1024.4
20260508231506 69 279 0.0 0.0 0.00 0.00 0.00 51 1024.4
20260508231006 67 264 0.9 0.9 0.00 0.00 0.00 51 1024.4
20260508230504 66 279 0.0 0.9 0.00 0.00 0.00 52 1024.4
20260508230004 65 293 0.0 0.0 0.00 0.00 0.00 55 1023.7
20260508225504 63 287 0.9 0.9 0.00 0.00 0.00 56 1023.7
20260508225005 64 279 0.9 0.9 0.00 0.00 0.00 54 1023.7
20260508224504 63 302 0.0 0.9 0.00 0.00 0.00 56 1023.7
20260508224006 62 272 0.0 0.9 0.00 0.00 0.00 57 1023.7
20260508223504 60 271 0.9 0.9 0.00 0.00 0.00 59 1023.7
20260508223008 60 279 0.9 0.9 0.00 0.00 0.00 58 1023.7
20260508222504 60 295 0.0 0.0 0.00 0.00 0.00 61 1023.4
20260508222005 58 281 0.9 0.9 0.00 0.00 0.00 60 1023.4
20260508221504 58 273 0.9 0.9 0.00 0.00 0.00 61 1023.4
20260508221005 57 274 0.0 0.0 0.00 0.00 0.00 63 1023.4
20260508220504 56 256 0.9 2.6 0.00 0.00 0.00 62 1023.4
20260508220004 56 292 0.0 0.0 0.00 0.00 0.00 62 1023.4
20260508215504 56 286 0.9 0.9 0.00 0.00 0.00 62 1023.4
20260508215004 56 262 0.0 0.0 0.00 0.00 0.00 63 1023.4
20260508214504 56 253 1.7 1.7 0.00 0.00 0.00 63 1023.0
20260508214005 55 270 0.9 0.9 0.00 0.00 0.00 63 1023.0
20260508213505 55 269 0.0 0.0 0.00 0.00 0.00 63 1023.0
20260508213004 55 265 0.9 1.7 0.00 0.00 0.00 64 1023.0
20260508212504 55 270 0.0 0.0 0.00 0.00 0.00 67 1022.7
20260508212005 54 270 0.0 0.9 0.00 0.00 0.00 67 1022.7
20260508211504 53 269 0.9 1.7 0.00 0.00 0.00 66 1022.7
20260508211004 52 248 0.9 1.7 0.00 0.00 0.00 67 1022.7
20260508210507 52 252 0.0 0.0 0.00 0.00 0.00 69 1022.7
20260508210005 51 252 0.0 0.0 0.00 0.00 0.00 69 1022.7
20260508205506 51 250 0.9 0.9 0.00 0.00 0.00 69 1022.7
20260508205005 51 252 0.0 0.9 0.00 0.00 0.00 70 1022.7
20260508204504 51 253 0.9 0.9 0.00 0.00 0.00 71 1022.7
20260508204005 50 253 0.0 0.0 0.00 0.00 0.00 72 1022.7
20260508203505 50 253 0.0 0.0 0.00 0.00 0.00 72 1022.7
20260508203008 51 253 0.0 0.0 0.00 0.00 0.00 72 1022.7
20260508202505 50 253 0.0 0.0 0.00 0.00 0.00 72 1022.7
20260508202005 51 253 0.0 0.0 0.00 0.00 0.00 72 1022.7
20260508201506 51 253 0.0 0.0 0.00 0.00 0.00 71 1022.7
20260508201004 51 253 0.0 0.9 0.00 0.00 0.00 69 1022.4
20260508200504 51 253 0.9 0.9 0.00 0.00 0.00 69 1022.4
20260508200004 51 253 0.9 0.9 0.00 0.00 0.00 71 1022.0
20260508195505 51 253 0.0 0.0 0.00 0.00 0.00 71 1022.0
20260508195006 52 253 0.0 0.0 0.00 0.00 0.00 69 1022.0
20260508194504 52 253 0.9 0.9 0.00 0.00 0.00 69 1022.0
20260508194004 52 255 0.0 0.9 0.00 0.00 0.00 69 1022.0
20260508193504 51 255 0.9 1.7 0.00 0.00 0.00 70 1021.7
20260508193004 52 262 0.9 0.9 0.00 0.00 0.00 69 1021.7
20260508192504 52 256 0.9 0.9 0.00 0.00 0.00 70 1021.7
20260508192004 52 253 0.9 0.9 0.00 0.00 0.00 70 1021.7
20260508191504 52 254 0.9 1.7 0.00 0.00 0.00 69 1021.7
20260508191005 51 266 0.9 0.9 0.00 0.00 0.00 71 1021.0
20260508190504 51 266 0.9 0.9 0.00 0.00 0.00 73 1021.0
20260508190005 51 267 0.0 0.0 0.00 0.00 0.00 73 1021.0
20260508185506 51 291 0.9 0.9 0.00 0.00 0.00 74 1021.0
20260508185005 51 285 0.9 0.9 0.00 0.00 0.00 72 1021.0
20260508184504 51 259 0.9 0.9 0.00 0.00 0.00 72 1021.7
20260508184004 51 259 0.0 0.0 0.00 0.00 0.00 71 1021.7
20260508183505 51 251 0.9 0.9 0.00 0.00 0.00 71 1021.7
20260508183004 51 254 0.0 0.9 0.00 0.00 0.00 72 1021.7
20260508182505 51 250 0.9 0.9 0.00 0.00 0.00 72 1021.0
20260508182005 51 259 0.9 0.9 0.00 0.00 0.00 72 1021.0
20260508181504 51 240 0.9 0.9 0.00 0.00 0.00 72 1021.0
20260508181004 51 264 0.9 1.7 0.00 0.00 0.00 72 1021.0
20260508180505 51 242 2.6 2.6 0.00 0.00 0.00 71 1021.0
20260508180005 51 264 0.9 0.9 0.00 0.00 0.00 71 1021.0
20260508175505 51 227 1.7 1.7 0.00 0.00 0.00 71 1021.0
20260508175004 51 188 1.7 1.7 0.00 0.00 0.00 72 1021.0
20260508174504 51 214 1.7 1.7 0.00 0.00 0.00 71 1021.7
20260508174004 51 261 0.9 0.9 0.00 0.00 0.00 70 1021.7
20260508173505 51 265 0.9 1.7 0.00 0.00 0.00 70 1021.7
20260508173005 52 222 1.7 1.7 0.00 0.00 0.00 69 1021.7
20260508172505 51 262 1.7 1.7 0.00 0.00 0.00 69 1021.0
20260508172005 52 252 0.9 0.9 0.00 0.00 0.00 68 1021.0
20260508171504 51 187 1.7 1.7 0.00 0.00 0.00 69 1021.0
20260508171004 51 256 0.9 0.9 0.00 0.00 0.00 69 1021.0
20260508170504 51 223 0.9 0.9 0.00 0.00 0.00 69 1021.0
20260508170006 51 249 1.7 2.6 0.00 0.00 0.00 70 1021.0
20260508165504 50 257 0.9 0.9 0.00 0.00 0.00 72 1021.0
20260508165005 49 189 1.7 2.6 0.00 0.00 0.00 74 1021.0
20260508164504 49 259 0.9 0.9 0.00 0.00 0.00 75 1020.7
20260508164005 49 262 1.7 1.7 0.00 0.00 0.00 75 1020.7
20260508163505 49 260 0.9 0.9 0.00 0.00 0.00 77 1020.7
20260508163005 50 261 0.0 0.0 0.00 0.00 0.00 73 1020.7
20260508162505 50 265 0.0 0.0 0.00 0.00 0.00 71 1020.7
20260508162004 50 240 0.9 0.9 0.00 0.00 0.00 71 1020.7
20260508161504 51 300 0.0 0.0 0.00 0.00 0.00 70 1020.7
20260508161004 51 144 1.7 1.7 0.00 0.00 0.00 68 1020.7
20260508160505 51 138 0.9 0.9 0.00 0.00 0.00 68 1020.7
20260508160004 52 149 1.7 2.6 0.00 0.00 0.00 68 1020.7
20260508155504 52 183 1.7 1.7 0.00 0.00 0.00 66 1020.7
20260508155005 53 264 0.9 0.9 0.00 0.00 0.00 66 1020.7
20260508154504 53 264 0.9 0.9 0.00 0.00 0.00 66 1021.0
20260508154005 54 258 0.9 0.9 0.00 0.00 0.00 64 1021.0
20260508153505 54 238 0.9 0.9 0.00 0.00 0.00 62 1021.0
20260508153005 54 265 0.0 0.0 0.00 0.00 0.00 61 1021.0
20260508152504 53 263 0.9 0.9 0.00 0.00 0.00 63 1020.7
20260508152005 53 245 0.9 0.9 0.00 0.00 0.00 64 1020.7
20260508151504 53 261 0.9 0.9 0.00 0.00 0.00 63 1020.7
20260508151005 54 243 0.9 0.9 0.00 0.00 0.00 62 1020.7
20260508150505 54 249 0.9 0.9 0.00 0.00 0.00 63 1020.7
20260508150005 55 239 0.0 0.9 0.00 0.00 0.00 61 1020.7
20260508145506 55 248 0.9 1.7 0.00 0.00 0.00 61 1020.7
20260508145005 55 245 0.9 0.9 0.00 0.00 0.00 61 1020.7
20260508144505 55 246 0.9 0.9 0.00 0.00 0.00 61 1020.7
20260508144007 55 249 0.9 1.7 0.00 0.00 0.00 61 1020.7
20260508143504 55 263 0.9 0.9 0.00 0.00 0.00 61 1020.7
20260508143006 55 272 0.9 0.9 0.00 0.00 0.00 60 1020.7
20260508142504 55 249 1.7 1.7 0.00 0.00 0.00 60 1020.7
20260508142007 55 262 0.9 1.7 0.00 0.00 0.00 59 1020.7
20260508141504 55 260 0.9 0.9 0.00 0.00 0.00 59 1020.7
20260508141006 55 245 0.9 1.7 0.00 0.00 0.00 60 1020.7
20260508140504 54 247 0.9 0.9 0.00 0.00 0.00 62 1020.7
20260508140005 54 247 0.0 0.9 0.00 0.00 0.00 63 1020.7
20260508135504 54 247 0.9 0.9 0.00 0.00 0.00 64 1020.7
20260508135005 54 237 0.9 1.7 0.00 0.00 0.00 63 1020.7
20260508134504 53 250 0.9 0.9 0.00 0.00 0.00 65 1020.7
20260508134007 53 257 0.9 0.9 0.00 0.00 0.00 67 1020.7
20260508133505 53 261 0.9 0.9 0.00 0.00 0.00 66 1020.3
20260508133005 54 261 0.9 0.9 0.00 0.00 0.00 65 1020.3
20260508132504 55 261 0.9 0.9 0.00 0.00 0.00 61 1020.3
20260508132004 55 265 0.9 0.9 0.00 0.00 0.00 62 1020.3
20260508131505 55 265 0.0 0.0 0.00 0.00 0.00 60 1020.3
20260508131004 55 257 0.0 0.0 0.00 0.00 0.00 59 1020.3
20260508130505 55 253 0.9 0.9 0.00 0.00 0.00 59 1020.3
20260508130005 55 266 0.9 0.9 0.00 0.00 0.00 60 1020.0
20260508125504 55 270 0.0 0.0 0.00 0.00 0.00 63 1020.0
20260508125004 56 270 0.9 0.9 0.00 0.00 0.00 61 1020.0
20260508124504 56 270 0.9 0.9 0.00 0.00 0.00 58 1020.3
20260508124005 56 270 0.0 0.9 0.00 0.00 0.00 58 1020.3
20260508123504 56 267 0.0 0.0 0.00 0.00 0.00 58 1020.0
20260508123004 56 261 0.9 0.9 0.00 0.00 0.00 59 1020.0
20260508122504 56 271 0.0 0.9 0.00 0.00 0.00 59 1020.3
20260508122004 55 273 0.0 0.0 0.00 0.00 0.00 61 1020.3
20260508121505 55 274 0.0 0.0 0.00 0.00 0.00 60 1020.3
20260508121004 55 274 0.0 0.0 0.00 0.00 0.00 61 1020.3
20260508120504 55 274 0.0 0.0 0.00 0.00 0.00 62 1020.3
20260508120004 55 274 0.0 0.0 0.00 0.00 0.00 60 1020.3
20260508115504 55 274 0.0 0.9 0.00 0.00 0.00 60 1020.3
20260508115005 56 274 0.0 0.0 0.00 0.00 0.00 59 1020.3
20260508114504 56 273 0.0 0.9 0.00 0.00 0.00 60 1020.3
20260508114004 55 279 0.0 0.0 0.00 0.00 0.00 64 1020.3
20260508113505 55 284 0.0 0.0 0.00 0.00 0.00 63 1020.0
20260508113005 55 284 0.0 0.0 0.00 0.00 0.00 64 1020.0
20260508112505 55 284 0.0 0.0 0.00 0.00 0.00 63 1020.0
20260508112005 55 280 0.0 0.0 0.00 0.00 0.00 65 1020.0
20260508111504 55 280 0.0 0.0 0.00 0.00 0.00 64 1020.0
20260508111004 56 280 0.0 0.0 0.00 0.00 0.00 63 1020.0
20260508110505 56 280 0.0 0.0 0.00 0.00 0.00 63 1020.0
20260508110005 56 280 0.0 0.0 0.00 0.00 0.00 65 1020.0
20260508105504 56 280 0.0 0.0 0.00 0.00 0.00 66 1020.0
20260508105004 55 292 0.0 0.0 0.00 0.00 0.00 64 1020.0
20260508104505 55 316 0.0 0.0 0.00 0.00 0.00 63 1020.0
20260508104004 55 320 0.0 0.0 0.00 0.00 0.00 66 1020.0
20260508103504 55 320 0.0 0.0 0.00 0.00 0.00 68 1020.0
20260508103004 55 320 0.0 0.0 0.00 0.00 0.00 66 1020.0
20260508102505 56 320 0.0 0.0 0.00 0.00 0.00 64 1020.0
20260508102005 55 320 0.0 0.0 0.00 0.00 0.00 62 1020.0
20260508101504 56 320 0.0 0.0 0.00 0.00 0.00 62 1020.0
20260508101005 56 321 0.0 0.0 0.00 0.00 0.00 63 1020.0
20260508100504 56 320 0.0 0.0 0.00 0.00 0.00 61 1020.0
20260508100005 56 320 0.0 0.0 0.00 0.00 0.00 61 1019.6
20260508095505 56 320 0.0 0.0 0.00 0.00 0.00 60 1019.6
20260508095004 57 320 0.9 0.9 0.00 0.00 0.00 60 1019.6
20260508094504 57 320 0.0 0.0 0.00 0.00 0.00 60 1019.6
20260508094005 57 320 0.0 0.0 0.00 0.00 0.00 60 1019.6
20260508093504 57 321 0.9 0.9 0.00 0.00 0.00 58 1019.6
20260508093005 58 311 0.9 0.9 0.00 0.00 0.00 60 1019.6
20260508092505 58 311 0.9 0.9 0.00 0.00 0.00 57 1019.3
20260508092004 58 307 0.9 0.9 0.00 0.00 0.00 55 1019.3
20260508091505 58 306 0.0 0.0 0.00 0.00 0.00 57 1019.3
20260508091005 58 307 0.0 0.0 0.00 0.00 0.00 56 1019.3
20260508090504 58 307 0.0 0.0 0.00 0.00 0.00 54 1019.3
20260508090005 59 307 0.0 0.0 0.00 0.00 0.00 53 1019.3
20260508085504 59 307 0.9 0.9 0.00 0.00 0.00 50 1019.3
20260508085004 59 299 0.0 0.0 0.00 0.00 0.00 53 1019.3
20260508084504 60 300 0.9 0.9 0.00 0.00 0.00 50 1019.0
20260508084004 60 299 0.0 0.0 0.00 0.00 0.00 51 1019.0
20260508083505 60 299 0.0 0.0 0.00 0.00 0.00 51 1018.3
20260508083005 60 299 0.0 0.9 0.00 0.00 0.00 51 1018.3
20260508082507 61 298 0.0 0.9 0.00 0.00 0.00 48 1018.3
20260508082005 61 319 1.7 1.7 0.00 0.00 0.00 49 1018.3
20260508081505 61 274 0.0 0.0 0.00 0.00 0.00 47 1018.3
20260508081004 61 301 0.0 0.9 0.00 0.00 0.00 48 1017.9
20260508080505 61 321 0.0 0.9 0.00 0.00 0.00 47 1017.9
20260508080005 61 321 0.0 0.0 0.00 0.00 0.00 46 1017.9
20260508075505 62 321 0.0 0.9 0.00 0.00 0.00 46 1017.9
20260508075004 62 322 0.0 0.0 0.00 0.00 0.00 45 1017.9
20260508074504 62 331 0.0 0.0 0.00 0.00 0.00 44 1017.6
20260508074004 63 331 0.0 0.0 0.00 0.00 0.00 44 1017.6
20260508073505 63 332 0.0 0.0 0.00 0.00 0.00 43 1017.6
20260508073005 63 332 0.0 0.0 0.00 0.00 0.00 43 1017.6
20260508072505 64 331 0.9 0.9 0.00 0.00 0.00 43 1017.6
20260508072004 64 331 0.0 0.9 0.00 0.00 0.00 43 1017.6
20260508071504 65 332 0.9 0.9 0.00 0.00 0.00 42 1017.6
20260508071005 65 331 0.0 0.9 0.00 0.00 0.00 42 1017.6
20260508070504 67 331 0.9 0.9 0.00 0.00 0.00 42 1017.6
20260508070009 67 354 0.0 1.7 0.00 0.00 0.00 36 1017.6
20260508065505 69 326 0.0 0.0 0.00 0.00 0.00 36 1017.6
20260508065005 69 337 1.7 2.6 0.00 0.00 0.00 33 1017.6
20260508064504 69 336 1.7 1.7 0.00 0.00 0.00 34 1017.3
20260508064004 70 328 0.0 0.9 0.00 0.00 0.00 33 1017.3
20260508063505 71 340 0.9 0.9 0.00 0.00 0.00 32 1017.3
20260508063005 71 315 0.9 0.9 0.00 0.00 0.00 32 1017.3
20260508062506 71 310 0.9 0.9 0.00 0.00 0.00 33 1017.3
20260508062008 72 308 0.9 0.9 0.00 0.00 0.00 32 1017.3
20260508061505 73 328 0.9 0.9 0.00 0.00 0.00 30 1017.3
20260508061005 73 311 0.0 0.0 0.00 0.00 0.00 30 1017.3
20260508060505 74 303 0.0 0.0 0.00 0.00 0.00 30 1017.3
20260508060005 73 301 0.9 0.9 0.00 0.00 0.00 32 1017.3
20260508055504 72 352 0.0 0.0 0.00 0.00 0.00 32 1017.3
20260508055005 71 4 2.6 2.6 0.00 0.00 0.00 30 1017.3
20260508054507 71 283 0.0 0.9 0.00 0.00 0.00 32 1017.6
20260508054005 71 318 0.0 0.9 0.00 0.00 0.00 32 1017.6
20260508053504 71 322 0.9 1.7 0.00 0.00 0.00 32 1017.3
20260508053004 71 306 0.9 0.9 0.00 0.00 0.00 32 1017.3
20260508052504 71 321 0.9 0.9 0.00 0.00 0.00 31 1017.6
20260508052005 72 322 0.9 0.9 0.00 0.00 0.00 32 1017.6
20260508051504 72 332 0.9 1.7 0.00 0.00 0.00 31 1017.6
20260508051004 72 287 0.9 0.9 0.00 0.00 0.00 32 1017.3
20260508050505 73 306 0.9 1.7 0.00 0.00 0.00 30 1017.3
20260508050004 73 288 0.0 0.9 0.00 0.00 0.00 29 1017.9
20260508045504 73 318 0.0 0.0 0.00 0.00 0.00 31 1017.9
20260508045004 73 316 0.9 0.9 0.00 0.00 0.00 29 1017.9
20260508044505 73 300 0.9 0.9 0.00 0.00 0.00 28 1017.9
20260508044006 74 290 0.0 0.9 0.00 0.00 0.00 28 1017.9
20260508043505 75 311 0.9 1.7 0.00 0.00 0.00 29 1017.9
20260508043004 75 239 0.9 0.9 0.00 0.00 0.00 28 1017.9
20260508042504 75 321 0.9 1.7 0.00 0.00 0.00 28 1017.9
20260508042004 76 328 1.7 2.6 0.00 0.00 0.00 27 1017.9
20260508041504 76 344 1.7 1.7 0.00 0.00 0.00 26 1017.9
20260508041006 77 290 0.0 0.0 0.00 0.00 0.00 27 1017.9
20260508040504 75 298 0.9 1.7 0.00 0.00 0.00 27 1017.9
20260508040004 74 300 0.9 0.9 0.00 0.00 0.00 26 1017.9
20260508035504 75 286 2.6 2.6 0.00 0.00 0.00 25 1017.9
20260508035005 75 297 0.9 1.7 0.00 0.00 0.00 25 1017.9
20260508034505 75 291 0.0 0.0 0.00 0.00 0.00 27 1017.9
20260508034004 74 287 2.6 3.5 0.00 0.00 0.00 27 1017.9
20260508033504 74 301 2.6 4.3 0.00 0.00 0.00 28 1018.3
20260508033004 74 242 1.7 1.7 0.00 0.00 0.00 28 1018.3
20260508032505 72 263 0.0 0.0 0.00 0.00 0.00 27 1019.0
20260508032005 73 297 2.6 3.5 0.00 0.00 0.00 28 1019.0
20260508031505 73 256 1.7 1.7 0.00 0.00 0.00 26 1019.0
20260508031005 73 284 0.9 0.9 0.00 0.00 0.00 29 1019.0
20260508030504 71 302 1.7 3.5 0.00 0.00 0.00 26 1019.0
20260508030005 71 232 6.1 6.1 0.00 0.00 0.00 26 1019.0
20260508025504 73 287 0.0 0.9 0.00 0.00 0.00 30 1019.0
20260508025005 73 304 0.0 0.9 0.00 0.00 0.00 31 1019.0